User: anonymous   Login
Location: Gerlach
(40.6516°N, 119.3568°W)
Time: 23:53:09
(UTC-08:00)
Language:

SEEDS - Orbit

View from above orbital plane
View from above orbital plane
View from above satellite
View from above satellite

Ground track
Ground track

The orbit data is extracted from the following two-line orbital elements,

1 32791U 08021J   24063.84718114  .00009352  00000-0  73173-3 0  9995
2 32791  97.6853  35.8773 0004021 296.4167  63.6644 15.01255307860706
Epoch (UTC): 03 March 2024 20:19:56
Eccentricity: 0.0004021
inclination: 97.6853°
perigee height: 560 km
apogee height: 566 km
right ascension of ascending node: 35.8773°
argument of perigee: 296.4167°
revolutions per day: 15.01255307
mean anomaly at epoch: 63.6644°
orbit number at epoch: 86070

The dashed part of the orbit path shows where the satellite is in the earth's shadow,  

DLR